Location: Gardner
(38.8108°N, 94.9272°W)
Time: 06:46:14
(UTC-06:00)

Envisat - Visible Passes

Search period start: 22 January 2019 00:00
Search period end: 01 February 2019 00:00
Orbit: 764 x 766 km, 98.2° (Epoch: 21 January)

Date Brightness Start Highest point End Pass type
(mag) Time Alt. Az. Time Alt. Az. Time Alt. Az.
22 Jan 3.0 19:07:48 10° SSE 19:12:52 86° WSW 19:17:59 10° NNW visible
23 Jan 3.3 18:31:30 10° SE 18:36:15 42° ENE 18:41:00 10° N visible
23 Jan 5.4 20:11:37 10° SW 20:15:24 21° W 20:19:14 10° NW visible
24 Jan 6.0 06:42:54 10° NE 06:45:57 16° E 06:48:58 10° SE visible
24 Jan 4.2 17:56:16 10° ESE 17:59:49 20° ENE 18:03:23 10° NNE visible
24 Jan 3.9 19:33:34 10° S 19:38:27 48° W 19:43:22 10° NNW visible
25 Jan 2.9 18:56:38 10° SSE 19:01:41 75° ENE 19:06:46 10° N visible
25 Jan 6.1 20:39:39 10° WSW 20:41:13 11° W 20:42:47 10° WNW visible
26 Jan 3.6 18:20:37 10° SE 18:25:07 33° ENE 18:29:38 10° N visible
26 Jan 5.0 19:59:52 10° SSW 20:04:07 27° W 20:08:23 10° NW visible
27 Jan 6.3 06:32:40 10° ENE 06:34:38 12° E 06:36:35 10° ESE visible
27 Jan 3.5 19:22:12 10° S 19:27:13 62° W 19:32:16 10° NNW visible
28 Jan 3.0 18:45:33 10° SSE 18:50:30 58° ENE 18:55:30 10° N visible
28 Jan 5.8 20:27:03 10° SW 20:29:53 15° W 20:32:43 10° WNW visible
29 Jan 5.8 06:56:30 10° NE 07:00:25 22° E 07:04:20 10° SE visible
29 Jan 3.9 18:09:49 10° ESE 18:13:59 26° ENE 18:18:10 10° NNE visible
29 Jan 4.6 19:48:16 10° SSW 19:52:50 34° W 19:57:27 10° NNW visible
30 Jan 3.1 19:10:56 10° S 19:16:00 79° WSW 19:21:07 10° NNW visible
31 Jan 3.2 18:34:32 10° SE 18:39:21 46° ENE 18:44:12 10° N visible
31 Jan 5.5 20:15:01 10° SW 20:18:34 19° W 20:22:09 10° NW visible
